Preview of NWS' New Version of Forecast
This preview is not operational and should not be used for support decisions.

Regional Weather Roundup (RWR)

Issued by National Weather Service (NWS)

                            
000
ASUS43 KBIS 260202
RWRND 

NORTH DAKOTA REGIONAL WEATHER ROUNDUP
NATIONAL WEATHER SERVICE BISMARCK ND
900 PM CDT SUN AUG 25 2019

NOTE: "FAIR" INDICATES FEW OR NO CLOUDS BELOW 12,000 FEET WITH NO
SIGNIFICANT WEATHER AND/OR OBSTRUCTIONS TO VISIBILITY.


NDZ001>003-009>011-017-260300-
NORTHWEST NORTH DAKOTA
  
CITY           SKY/WX    TMP DP  RH WIND       PRES   REMARKS
WILLISTON      CLEAR     66  50  56 W7        29.76R                  
MINOT          CLOUDY    72  59  63 W12       29.68R                  
MINOT AFB      MOCLDY    71  60  69 NW12      29.66R                  
$$
 
NDZ018>021-031>035-040>046-260300-
SOUTHWEST NORTH DAKOTA
  
CITY           SKY/WX    TMP DP  RH WIND       PRES   REMARKS
BISMARCK       CLOUDY    71  61  70 N13G22    29.70R                  
DICKINSON      CLEAR     66  48  52 W7        29.76R                  
GARRISON         N/A     61  59  93 CALM      29.70S                  
HETTINGER ARPT PTCLDY    66  51  58 NW5       29.78R                  
$$
 
NDZ004>008-012>016-024-026-027-054-260300-
NORTHEAST NORTH DAKOTA
  
CITY           SKY/WX    TMP DP  RH WIND       PRES   REMARKS
GRAND FORKS    TSTM      65  61  87 S16G25    29.71S FOG              
GRND FRKS AFB  MOCLDY    64  64 100 S15       29.71F                  
DEVILS LAKE    CLOUDY    67  65  93 SW9       29.69F                  
$$
 
NDZ022-023-025-028>030-036>039-047>053-260300-
SOUTHEAST NORTH DAKOTA
  
CITY           SKY/WX    TMP DP  RH WIND       PRES   REMARKS
FARGO          CLOUDY    66  61  84 SE17G31   29.75F                  
JAMESTOWN      TSTM      65  64  97 MISG      29.75R FOG              
$$